Portada
METAR-TAF:

METAR-TAF

Aeroports :

Mount Pleasant Municipal Airport

Mount Pleasant, Iowa, Estats Units d'Amèrica

latitud: 40-56-48N, longitud: 091-30-40W, altitud: 224 m

Observació

L'informe es va fer fa 34 minuts, a les 03:55 UTC
Vent 3 kt del Nord
Temperatura 7°C
Humitat 70%
Pressió 1019 hPa
Visibilitat: 16.1 km
Cel clar

METAR: KMPZ 300355Z AUTO 36003KT 10SM CLR 07/02 A3010 RMK AO2

Hora: 23:29 (04:29 UTC)


TAF: manca

Observacions i pronòstics meteorològics de més de 4000 aeroports (METAR i TAF).

Les estacions disponibles són els punts grocs i vermells al mapa.

Posi el ratolí al punt desitjat per veure el nom de l'estació.

Feu clic per veure les observacions i els pronòstics meteorològics.

Per canviar el mapa: feu clic els botons verds amb una creu de color negre per apropar; al botó verd amb un guió per allunyar la imatge; o en les fletxes verdes per a mapes adjacents.


METAR-TAF: